Weather History for Owatonna, MN

Change the Weather History Date:

Saturday, December 24, 2011

  Actual Average Record
Temperature  
Mean Temperature 28 °F -  
Max Temperature 42 °F 23 °F 42 °F (2011)
Min Temperature 15 °F 4 °F -26 °F (1983)
Degree Days  
Heating Degree Days 36    
Moisture  
Dew Point 22 °F    
Average Humidity 72    
Maximum Humidity 93    
Minimum Humidity 49    
Precipitation  
Precipitation 0.00 in - - ()
Sea Level Pressure  
Sea Level Pressure 30.09 in    
Wind  
Wind Speed 8 mph (SW)    
Max Wind Speed 17 mph    
Max Gust Speed 22 mph    
Visibility 10 miles    
Events      
Averages and records for this station are not official NWS values.
T = Trace of Precipitation, MM = Missing Value Source: NWS Daily Summary

Daily Weather History Graph

Daily Weather History Graph

Search for Another Location

Airport:

Trip Planner

Search our weather history database for the weather conditions in past years. The results will help you decide how hot, cold, wet, or windy it might be!

Date:

Astronomy

Dec. 24, 2011 Rise Set
Actual Time 7:46 AM CST 4:38 PM CST
Civil Twilight 7:13 AM CST 5:12 PM CST
Nautical Twilight 6:36 AM CST 5:48 PM CST
Astronomical Twilight 6:01 AM CST 6:24 PM CST
Moon 7:34 AM CST (12/24) 4:53 PM CST (12/24)
Length of Visible Light 9h 59m
Length of Day
8h 52m
New Moon, 0% of the Moon is Illuminated
Dec 24
New Moon
Dec 24
New
Jan 1
First Quarter
Jan 9
Full
Jan 16
Last Quarter

Hourly Weather History & Observations

Time (CST) Temp. Windchill Dew Point Humidity Pressure Visibility Wind Dir Wind Speed Gust Speed Precip Events Conditions
12:14 AM 17.6 °F - 15.8 °F 93% 30.13 in 10.0 mi Calm Calm - N/A   Clear
12:34 AM 17.6 °F - 15.8 °F 93% 30.14 in 10.0 mi Calm Calm - N/A   Clear
12:54 AM 17.6 °F - 15.8 °F 93% 30.14 in 10.0 mi Calm Calm - N/A   Clear
1:14 AM 15.8 °F - 12.2 °F 86% 30.14 in 10.0 mi Calm Calm - N/A   Clear
1:34 AM 17.6 °F 9.3 °F 15.8 °F 93% 30.13 in 10.0 mi SE 5.8 mph - N/A   Clear
1:54 AM 17.6 °F 9.3 °F 15.8 °F 93% 30.14 in 10.0 mi SSE 5.8 mph - N/A   Clear
2:54 AM 17.6 °F - 15.8 °F 93% 30.16 in 10.0 mi Calm Calm - N/A   Clear
3:14 AM 17.6 °F - 15.8 °F 93% 30.16 in 10.0 mi Calm Calm - N/A   Clear
3:34 AM 17.6 °F 10.7 °F 15.8 °F 93% 30.16 in 10.0 mi SE 4.6 mph - N/A   Clear
3:54 AM 17.6 °F - 15.8 °F 93% 30.16 in 10.0 mi Calm Calm - N/A   Clear
4:14 AM 17.6 °F 12.3 °F 15.8 °F 93% 30.14 in 10.0 mi South 3.5 mph - N/A   Clear
4:34 AM 19.4 °F 9.5 °F 17.6 °F 93% 30.14 in 10.0 mi South 8.1 mph - N/A   Clear
4:54 AM 19.4 °F 9.5 °F 17.6 °F 93% 30.13 in 10.0 mi South 8.1 mph - N/A   Clear
5:34 AM 21.2 °F 10.9 °F 17.6 °F 86% 30.11 in 10.0 mi South 9.2 mph - N/A   Clear
5:54 AM 21.2 °F 10.1 °F 17.6 °F 86% 30.11 in 10.0 mi South 10.4 mph - N/A   Clear
6:14 AM 21.2 °F 9.5 °F 17.6 °F 86% 30.10 in 10.0 mi South 11.5 mph - N/A   Clear
6:34 AM 21.2 °F 10.9 °F 17.6 °F 86% 30.10 in 10.0 mi South 9.2 mph - N/A   Clear
6:54 AM 23.0 °F 11.1 °F 19.4 °F 86% 30.10 in 10.0 mi South 12.7 mph - N/A   Clear
7:14 AM 23.0 °F 11.1 °F 19.4 °F 86% 30.10 in 10.0 mi South 12.7 mph - N/A   Clear
7:34 AM 23.0 °F 12.4 °F 19.4 °F 86% 30.09 in 10.0 mi South 10.4 mph - N/A   Clear
7:54 AM 21.2 °F 10.9 °F 17.6 °F 86% 30.11 in 10.0 mi SSW 9.2 mph - N/A   Clear
8:14 AM 24.8 °F 14.0 °F 19.4 °F 80% 30.10 in 10.0 mi South 11.5 mph - N/A   Clear
8:34 AM 26.6 °F 13.8 °F 21.2 °F 80% 30.09 in 10.0 mi SSW 17.3 mph - N/A   Clear
8:54 AM 28.4 °F 17.0 °F 21.2 °F 74% 30.11 in 10.0 mi SW 15.0 mph - N/A   Clear
9:14 AM 28.4 °F 17.5 °F 21.2 °F 74% 30.11 in 10.0 mi SW 13.8 mph 20.7 mph N/A   Clear
9:34 AM 30.2 °F 19.3 °F 21.2 °F 69% 30.11 in 10.0 mi SW 15.0 mph - N/A   Clear
9:54 AM 30.2 °F 18.9 °F 21.2 °F 69% 30.12 in 10.0 mi WSW 16.1 mph - N/A   Clear
10:14 AM 32.0 °F 22.5 °F 23.0 °F 69% 30.12 in 10.0 mi WSW 12.7 mph - N/A   Clear
10:34 AM 33.8 °F 23.9 °F 23.0 °F 65% 30.11 in 10.0 mi WSW 15.0 mph - N/A   Clear
10:54 AM 33.8 °F 24.3 °F 23.0 °F 65% 30.11 in 10.0 mi West 13.8 mph 18.4 mph N/A   Clear
11:14 AM 35.6 °F 27.1 °F 24.8 °F 65% 30.11 in 10.0 mi WSW 12.7 mph - N/A   Clear
11:54 AM 37.4 °F 29.3 °F 24.8 °F 60% 30.09 in 10.0 mi WSW 12.7 mph - N/A   Clear
12:14 PM 37.4 °F 29.3 °F 24.8 °F 60% 30.08 in 10.0 mi WSW 12.7 mph - N/A   Clear
12:34 PM 39.2 °F 31.6 °F 24.8 °F 56% 30.08 in 10.0 mi WSW 12.7 mph - N/A   Clear
12:54 PM 39.2 °F 30.8 °F 24.8 °F 56% 30.06 in 10.0 mi WSW 15.0 mph - N/A   Clear
1:14 PM 39.2 °F 31.6 °F 24.8 °F 56% 30.06 in 10.0 mi WSW 12.7 mph - N/A   Clear
1:34 PM 41.0 °F 32.8 °F 24.8 °F 53% 30.05 in 10.0 mi WSW 16.1 mph - N/A   Clear
1:54 PM 42.8 °F 35.4 °F 26.6 °F 53% 30.06 in 10.0 mi WSW 15.0 mph 19.6 mph N/A   Clear
2:14 PM 42.8 °F 35.4 °F 24.8 °F 49% 30.06 in 10.0 mi WSW 15.0 mph - N/A   Clear
2:34 PM 42.8 °F 36.2 °F 24.8 °F 49% 30.06 in 10.0 mi WSW 12.7 mph - N/A   Clear
3:14 PM 42.8 °F 35.8 °F 26.6 °F 53% 30.06 in 10.0 mi WSW 13.8 mph - N/A   Clear
3:34 PM 42.8 °F 37.0 °F 26.6 °F 53% 30.07 in 10.0 mi WSW 10.4 mph - N/A   Clear
3:54 PM 41.0 °F 35.2 °F 26.6 °F 57% 30.06 in 10.0 mi SW 9.2 mph - N/A   Clear
4:14 PM 39.2 °F 33.0 °F 26.6 °F 61% 30.06 in 10.0 mi SW 9.2 mph - N/A   Clear
4:34 PM 37.4 °F 31.4 °F 26.6 °F 65% 30.07 in 10.0 mi SW 8.1 mph - N/A   Clear
4:54 PM 39.2 °F 33.0 °F 26.6 °F 61% 30.07 in 10.0 mi SSW 9.2 mph - N/A   Clear
5:14 PM 37.4 °F 30.8 °F 26.6 °F 65% 30.08 in 10.0 mi SW 9.2 mph - N/A   Clear
5:34 PM 39.2 °F 33.6 °F 26.6 °F 61% 30.08 in 10.0 mi SW 8.1 mph - N/A   Clear
5:54 PM 39.2 °F 32.5 °F 26.6 °F 61% 30.07 in 10.0 mi SSW 10.4 mph - N/A   Clear
6:14 PM 39.2 °F 31.6 °F 26.6 °F 61% 30.06 in 10.0 mi SW 12.7 mph - N/A   Clear
6:34 PM 39.2 °F 30.8 °F 26.6 °F 61% 30.06 in 10.0 mi SW 15.0 mph 20.7 mph N/A   Clear
6:54 PM 39.2 °F 30.5 °F 26.6 °F 61% 30.06 in 10.0 mi WSW 16.1 mph 21.9 mph N/A   Clear
7:14 PM 39.2 °F 31.2 °F 26.6 °F 61% 30.06 in 10.0 mi WSW 13.8 mph - N/A   Clear
7:34 PM 39.2 °F 31.2 °F 26.6 °F 61% 30.05 in 10.0 mi SW 13.8 mph 18.4 mph N/A   Clear
7:54 PM 39.2 °F 30.2 °F 26.6 °F 61% 30.06 in 10.0 mi WSW 17.3 mph - N/A   Clear
8:14 PM 39.2 °F 31.2 °F 26.6 °F 61% 30.04 in 10.0 mi SW 13.8 mph - N/A   Clear
8:34 PM 37.4 °F 29.3 °F 26.6 °F 65% 30.05 in 10.0 mi WSW 12.7 mph - N/A   Clear
8:54 PM 37.4 °F 29.8 °F 26.6 °F 65% 30.06 in 10.0 mi WSW 11.5 mph - N/A   Clear
9:14 PM 37.4 °F 30.3 °F 26.6 °F 65% 30.06 in 10.0 mi WSW 10.4 mph - N/A   Clear
9:33 PM 37.4 °F 30.3 °F 26.6 °F 65% 30.05 in 10.0 mi WSW 10.4 mph - N/A   Scattered Clouds
10:14 PM 35.6 °F 28.6 °F 26.6 °F 70% 30.06 in 10.0 mi WSW 9.2 mph - N/A   Clear
10:33 PM 35.6 °F 28.6 °F 26.6 °F 70% 30.05 in 10.0 mi WSW 9.2 mph - N/A   Clear
10:53 PM 35.6 °F 28.0 °F 26.6 °F 70% 30.05 in 10.0 mi WSW 10.4 mph - N/A   Clear
11:33 PM 35.6 °F 28.6 °F 24.8 °F 65% 30.05 in 10.0 mi WSW 9.2 mph - N/A   Clear
11:53 PM 35.6 °F 28.0 °F 24.8 °F 65% 30.04 in 10.0 mi WSW 10.4 mph - N/A   Clear